Погода в Станке

Россия / Ивановская область     57°27′09″N   41°55′17″E
темп.,
°C
ветер,
м/с
пор.,
м/с
влажн.,
%
обл.,
%
осадки,
мм/ч
давл.,
гПа
погр.,
м
14 апреля, ср
ср1400:00+8ю397982 0.0 1025132
03:00+7ю311815 0.0 1024173
06:00+7ю311868 0.0 1023165
09:00+12ю310735 0.0 1023317
12:00+17ю495991 0.0 1022634
15:00+18ю474935 0.0 10201267
18:00+14ююв2667100 0.0 101984
21:00+10ю3670100 0.0 102096
15 апреля, чт
чт1500:00+8ююз2271100 0.0 101925
03:00+7ююз1173100 0.0 101910
06:00+7в0075100 0.0 101910
09:00+11ссв2365100 0.0 1020235
12:00+13ссв3465100 0.0 1020685
15:00+11ссв5777100 0.0 1021643
18:00+7св61183100 0.0 1023541
21:00+5св61384100 0.0 1025571
16 апреля, пт
пт1600:00+5всв5147698 0.0 1025584
03:00+4всв5138581 0.0 1026560
06:00+3всв5127689 0.0 1027504
09:00+6всв696042 0.0 1028643
12:00+10всв68425 0.0 10281041
15:00+12всв58355 0.0 10281296
18:00+10всв494414 0.0 1028571
21:00+5св411625 0.0 1030282
17 апреля, сб
сб1700:00+3всв3107016 0.0 1030233
03:00+1св310766 0.0 1031202
06:00+1св310775 0.0 1032233
09:00+7всв48525 0.0 1032601
12:00+11всв46405 0.0 10311280
15:00+12св46355 0.0 10311573
18:00+10св36475 0.0 1031252
21:00+6св36695 0.0 1031108
18 апреля, вс
вс1800:00+4св37771 0.0 1032115
03:00+3св26833 0.0 1033126
06:00+2св2782100 0.0 1033150
09:00+8всв355869 0.0 1033535
12:00+11всв354689 0.0 10331431
15:00+12св3542100 0.0 10321870
18:00+11всв375178 0.0 1032371
21:00+6всв39765 0.0 1034217